Location: De Greiden
(52.9496°N, 5.9137°E)
Time: 02:15:19
(UTC+00:00)

Cosmos 2026 Rocket - Pass Details

Date: 24 January 2021
Orbit: 940 x 1000 km, 82.9° (Epoch: 26 February)

Event Time Altitude Azimuth Distance (km) Brightness Sun altitude
Rises 17:38:29 0° 162° (SSE) 3,614 6.9 -13.6°
Reaches altitude 10° 17:41:05 10° 155° (SSE) 2,681 6.2 -14.0°
Maximum altitude 17:46:44 40° 88° (E) 1,383 4.3 -14.8°
Drops below altitude 10° 17:52:29 10° 21° (NNE) 2,736 6.0 -15.7°
Sets 17:55:10 0° 15° (NNE) 3,697 6.8 -16.1°
